#�ϑ�����,���ϕ���,���ϕ���,�ő啗��,�ő啗����������,�ő�u�ԕ���,�ő�u�ԕ�����������
#(�N����),(m/s)   ,(16����),(m/s)   ,(16����)        ,(m/s)       ,(16����)            
2013/6/30 0:01,1.5,2,1.5,1,3.1,3
2013/6/30 0:02,1.6,2,1.6,2,2.2,2
2013/6/30 0:03,1.6,2,1.6,2,2.5,1
2013/6/30 0:04,1.6,2,1.6,2,3,1
2013/6/30 0:05,1.6,2,1.7,2,2.6,2
2013/6/30 0:06,1.7,2,1.7,2,3.3,2
2013/6/30 0:07,1.8,2,1.8,2,2.9,2
2013/6/30 0:08,1.8,2,1.8,2,2.1,2
2013/6/30 0:09,1.7,2,1.8,2,2.1,2
2013/6/30 0:10,1.6,2,1.7,2,2.6,2
2013/6/30 0:11,1.6,2,1.6,2,2.7,2
2013/6/30 0:12,1.6,2,1.6,2,2.4,1
2013/6/30 0:13,1.6,2,1.6,2,2.7,1
2013/6/30 0:14,1.6,2,1.6,2,2,3
2013/6/30 0:15,1.6,2,1.6,2,2.1,2
2013/6/30 0:16,1.5,2,1.6,2,2.2,2
2013/6/30 0:17,1.5,2,1.5,2,2.4,3
2013/6/30 0:18,1.5,2,1.5,2,2,3
2013/6/30 0:19,1.5,2,1.5,2,2.1,2
2013/6/30 0:20,1.5,2,1.5,2,2.2,2
2013/6/30 0:21,1.5,2,1.5,2,2.4,2
2013/6/30 0:22,1.5,2,1.5,2,3.6,3
2013/6/30 0:23,1.6,2,1.6,2,3.5,3
2013/6/30 0:24,1.6,2,1.6,2,3.5,3
2013/6/30 0:25,1.7,2,1.7,2,2.7,2
2013/6/30 0:26,1.7,2,1.7,2,3.2,3
2013/6/30 0:27,1.8,2,1.8,2,2.7,2
2013/6/30 0:28,1.8,2,1.8,2,2.6,2
2013/6/30 0:29,1.9,2,1.9,2,3,2
2013/6/30 0:30,1.9,2,1.9,2,2.5,2
2013/6/30 0:31,1.8,2,1.9,2,2.1,1
2013/6/30 0:32,1.8,2,1.8,2,1.9,2
2013/6/30 0:33,1.7,2,1.8,2,2.2,2
2013/6/30 0:34,1.6,2,1.7,2,2.5,2
2013/6/30 0:35,1.6,2,1.6,2,2.4,2
2013/6/30 0:36,1.6,2,1.6,2,2.4,1
2013/6/30 0:37,1.5,2,1.6,2,1.8,1
2013/6/30 0:38,1.4,2,1.5,2,2.5,1
2013/6/30 0:39,1.4,2,1.4,2,2.4,2
2013/6/30 0:40,1.5,2,1.5,2,3.1,1
2013/6/30 0:41,1.5,2,1.5,2,2.1,1
2013/6/30 0:42,1.5,2,1.5,2,3,1
2013/6/30 0:43,1.6,2,1.6,2,2.6,2
2013/6/30 0:44,1.6,2,1.6,2,3,1
2013/6/30 0:45,1.6,2,1.7,2,3,2
2013/6/30 0:46,1.7,2,1.7,2,2.6,2
2013/6/30 0:47,1.7,2,1.7,2,3,3
2013/6/30 0:48,1.8,2,1.8,2,2.6,2
2013/6/30 0:49,1.7,2,1.8,2,2.4,2
2013/6/30 0:50,1.7,2,1.7,2,2.5,3
2013/6/30 0:51,1.8,2,1.8,2,3.1,3
2013/6/30 0:52,1.8,2,1.8,2,2.9,2
2013/6/30 0:53,1.8,2,1.8,2,2.6,3
2013/6/30 0:54,1.8,2,1.8,2,2.2,2
2013/6/30 0:55,1.7,2,1.7,2,2,1
2013/6/30 0:56,1.7,2,1.7,2,2.9,3
2013/6/30 0:57,1.7,2,1.7,2,3.1,2
2013/6/30 0:58,1.8,2,1.8,2,3.1,3
2013/6/30 0:59,1.8,2,1.8,2,2.4,2
2013/6/30 1:00,1.8,2,1.8,2,3.1,3
2013/6/30 1:01,1.7,2,1.8,2,2.5,2
2013/6/30 1:02,1.7,2,1.7,2,2.6,3
2013/6/30 1:03,1.7,2,1.7,2,2.7,2
2013/6/30 1:04,1.7,2,1.7,2,2.9,2
2013/6/30 1:05,1.7,2,1.7,2,2.1,3
2013/6/30 1:06,1.7,2,1.7,2,2.5,3
2013/6/30 1:07,1.6,2,1.7,2,2.7,3
2013/6/30 1:08,1.6,2,1.6,2,3.3,2
2013/6/30 1:09,1.6,2,1.6,2,3.3,1
2013/6/30 1:10,1.6,2,1.6,2,3.1,2
2013/6/30 1:11,1.6,2,1.6,2,2.6,1
2013/6/30 1:12,1.7,2,1.7,2,3.7,1
2013/6/30 1:13,1.7,2,1.7,2,2.9,2
2013/6/30 1:14,1.7,2,1.7,2,2.9,2
2013/6/30 1:15,1.8,2,1.8,2,2.7,2
2013/6/30 1:16,1.8,2,1.8,2,2.7,1
2013/6/30 1:17,1.9,2,1.9,2,3,4
2013/6/30 1:18,1.9,2,1.9,2,3,2
2013/6/30 1:19,1.9,2,1.9,2,2.9,2
2013/6/30 1:20,1.9,2,1.9,2,3.1,2
2013/6/30 1:21,1.9,2,1.9,2,3.1,1
2013/6/30 1:22,1.8,2,1.9,2,1.9,3
2013/6/30 1:23,1.8,2,1.8,2,2,2
2013/6/30 1:24,1.8,2,1.8,2,2.7,4
2013/6/30 1:25,1.7,2,1.8,2,2.6,1
2013/6/30 1:26,1.7,2,1.7,2,2.2,1
2013/6/30 1:27,1.7,2,1.7,2,3.2,2
2013/6/30 1:28,1.8,2,1.8,2,3.6,3
2013/6/30 1:29,2,2,2,2,4.4,2
2013/6/30 1:30,2,2,2,2,3.1,3
2013/6/30 1:31,2,2,2.1,2,4.1,2
2013/6/30 1:32,2.1,2,2.1,2,3.1,2
2013/6/30 1:33,2.2,2,2.2,2,3.5,3
2013/6/30 1:34,2.4,2,2.4,2,4.8,3
2013/6/30 1:35,2.5,2,2.5,2,4.9,2
2013/6/30 1:36,2.6,2,2.6,2,4.3,4
2013/6/30 1:37,2.6,2,2.6,2,3.9,2
2013/6/30 1:38,2.6,2,2.6,2,3.3,1
2013/6/30 1:39,2.5,2,2.6,2,3.7,3
2013/6/30 1:40,2.6,2,2.6,2,3.7,2
2013/6/30 1:41,2.7,2,2.7,2,4.4,3
2013/6/30 1:42,2.8,2,2.8,2,4.4,3
2013/6/30 1:43,2.8,2,2.9,2,4.4,3
2013/6/30 1:44,2.9,2,2.9,2,5.7,3
2013/6/30 1:45,2.8,2,2.9,2,4.3,2
2013/6/30 1:46,2.7,2,2.8,2,3.2,3
2013/6/30 1:47,2.7,2,2.7,2,3.8,3
2013/6/30 1:48,2.8,2,2.8,2,3.9,3
2013/6/30 1:49,2.8,2,2.8,2,3.5,1
2013/6/30 1:50,2.7,2,2.7,2,3.7,3
2013/6/30 1:51,2.7,2,2.7,2,3.9,3
2013/6/30 1:52,2.6,2,2.7,2,3.8,2
2013/6/30 1:53,2.7,2,2.7,2,5.6,3
2013/6/30 1:54,2.6,2,2.6,2,3.5,3
2013/6/30 1:55,2.6,2,2.6,2,4.2,2
2013/6/30 1:56,2.7,2,2.7,2,4.1,3
2013/6/30 1:57,2.6,2,2.6,2,3.5,2
2013/6/30 1:58,2.5,2,2.6,2,2.9,2
2013/6/30 1:59,2.6,2,2.6,2,4.9,3
2013/6/30 2:00,2.5,2,2.6,2,3.6,3
2013/6/30 2:01,2.5,2,2.5,2,4.4,3
2013/6/30 2:02,2.4,2,2.5,2,2.7,3
2013/6/30 2:03,2.4,2,2.4,2,4.9,3
2013/6/30 2:04,2.4,2,2.4,2,4.4,2
2013/6/30 2:05,2.5,2,2.5,2,4.4,2
2013/6/30 2:06,2.4,2,2.4,2,3.1,3
2013/6/30 2:07,2.4,2,2.4,2,2.9,3
2013/6/30 2:08,2.4,2,2.4,2,3.6,2
2013/6/30 2:09,2.3,2,2.4,2,3.6,3
2013/6/30 2:10,2.4,2,2.4,2,4.2,3
2013/6/30 2:11,2.5,2,2.5,2,5.2,3
2013/6/30 2:12,2.7,2,2.7,2,5.4,3
2013/6/30 2:13,2.7,2,2.7,2,3.2,3
2013/6/30 2:14,2.6,2,2.7,2,3.9,3
2013/6/30 2:15,2.7,3,2.7,2,5.4,3
2013/6/30 2:16,2.9,2,2.9,2,5.1,3
2013/6/30 2:17,2.9,3,2.9,2,4.8,2
2013/6/30 2:18,3,3,3,3,5.1,4
2013/6/30 2:19,3.1,3,3.1,3,5,4
2013/6/30 2:20,3,3,3.1,3,4.3,2
2013/6/30 2:21,3.1,3,3.1,3,3.3,3
2013/6/30 2:22,3,3,3,3,4.4,3
2013/6/30 2:23,3,2,3,3,5.7,3
2013/6/30 2:24,3.1,2,3.1,3,4.1,2
2013/6/30 2:25,2.9,2,3.1,3,3.7,3
2013/6/30 2:26,2.8,2,2.9,3,3.2,2
2013/6/30 2:27,2.7,2,2.7,3,2.7,2
2013/6/30 2:28,2.6,2,2.7,3,4.5,2
2013/6/30 2:29,2.6,2,2.6,3,4.9,3
2013/6/30 2:30,2.6,2,2.6,3,4.4,2
2013/6/30 2:31,2.7,2,2.7,2,5,3
2013/6/30 2:32,2.6,2,2.7,2,4.3,3
2013/6/30 2:33,2.6,2,2.7,2,4.8,2
2013/6/30 2:34,2.8,2,2.8,2,4.8,1
2013/6/30 2:35,2.9,2,2.9,2,5.2,3
2013/6/30 2:36,2.9,2,2.9,2,4.3,3
2013/6/30 2:37,3,2,3,2,2.6,2
2013/6/30 2:38,2.9,2,3,2,4.8,2
2013/6/30 2:39,2.8,2,3,2,4.8,2
2013/6/30 2:40,2.9,2,2.9,2,4.7,2
2013/6/30 2:41,2.8,2,2.9,2,4.4,3
2013/6/30 2:42,2.8,2,2.8,2,2.9,3
2013/6/30 2:43,2.7,2,2.8,2,5.8,2
2013/6/30 2:44,2.8,2,2.8,2,6.1,3
2013/6/30 2:45,2.8,2,2.8,2,5.7,2
2013/6/30 2:46,2.8,2,2.8,2,4.2,2
2013/6/30 2:47,2.9,2,2.9,2,4.1,3
2013/6/30 2:48,3,2,3,2,4.9,3
2013/6/30 2:49,3,2,3,2,3,3
2013/6/30 2:50,3,2,3,2,5,3
2013/6/30 2:51,3.1,2,3.1,2,4.9,3
2013/6/30 2:52,3.2,2,3.2,2,3.9,3
2013/6/30 2:53,3.2,2,3.3,2,4.5,3
2013/6/30 2:54,3.1,2,3.2,2,4.8,3
2013/6/30 2:55,3,2,3.1,2,5.4,3
2013/6/30 2:56,3,2,3,2,5.1,3
2013/6/30 2:57,3,2,3,2,4.4,1
2013/6/30 2:58,2.8,2,3,2,5,3
2013/6/30 2:59,2.7,2,2.8,2,2.5,3
2013/6/30 3:00,2.6,2,2.7,2,3,3
2013/6/30 3:01,2.6,2,2.6,2,4.9,2
2013/6/30 3:02,2.6,2,2.6,2,5.1,3
2013/6/30 3:03,2.5,2,2.6,2,4.2,2
2013/6/30 3:04,2.5,2,2.5,2,3.6,1
2013/6/30 3:05,2.4,2,2.5,2,3.5,2
2013/6/30 3:06,2.3,2,2.4,2,3.2,2
2013/6/30 3:07,2.3,2,2.3,2,4.1,2
2013/6/30 3:08,2.3,2,2.4,2,3.5,2
2013/6/30 3:09,2.5,2,2.5,2,4.4,2
2013/6/30 3:10,2.5,2,2.5,2,5.5,2
2013/6/30 3:11,2.5,2,2.6,2,5,2
2013/6/30 3:12,2.5,2,2.6,2,5,3
2013/6/30 3:13,2.6,2,2.6,2,4.8,2
2013/6/30 3:14,2.6,2,2.6,2,4.3,3
2013/6/30 3:15,2.7,2,2.7,2,4.9,2
2013/6/30 3:16,2.7,2,2.7,2,4.8,2
2013/6/30 3:17,2.8,2,2.8,2,5.7,2
2013/6/30 3:18,2.9,2,2.9,2,4.7,1
2013/6/30 3:19,2.8,2,2.9,2,3.7,2
2013/6/30 3:20,2.8,2,2.8,2,4.4,2
2013/6/30 3:21,2.7,2,2.9,2,3.6,2
2013/6/30 3:22,2.6,2,2.8,2,4.8,2
2013/6/30 3:23,2.6,2,2.6,2,3.6,1
2013/6/30 3:24,2.6,2,2.6,2,4.4,1
2013/6/30 3:25,2.5,2,2.6,2,3.7,2
2013/6/30 3:26,2.6,2,2.6,2,4.4,3
2013/6/30 3:27,2.5,2,2.6,2,4.2,3
2013/6/30 3:28,2.5,2,2.5,2,3.6,3
2013/6/30 3:29,2.5,2,2.5,2,4.7,3
2013/6/30 3:30,2.5,2,2.5,2,3.8,3
2013/6/30 3:31,2.6,2,2.6,2,4.8,3
2013/6/30 3:32,2.6,2,2.6,2,3,2
2013/6/30 3:33,2.5,2,2.6,2,3,3
2013/6/30 3:34,2.4,2,2.5,2,3.2,2
2013/6/30 3:35,2.4,3,2.4,2,3.6,1
2013/6/30 3:36,2.3,2,2.4,2,3.9,2
2013/6/30 3:37,2.3,2,2.3,2,3.7,3
2013/6/30 3:38,2.2,2,2.3,2,4.7,3
2013/6/30 3:39,2.3,2,2.3,2,4.3,4
2013/6/30 3:40,2.3,2,2.3,2,4.1,3
2013/6/30 3:41,2.3,2,2.3,2,3.5,3
2013/6/30 3:42,2.3,3,2.3,2,2.9,3
2013/6/30 3:43,2.4,3,2.4,2,3.6,3
2013/6/30 3:44,2.6,3,2.6,3,3.7,3
2013/6/30 3:45,2.6,3,2.6,3,3.7,2
2013/6/30 3:46,2.6,3,2.6,3,4.1,2
2013/6/30 3:47,2.6,3,2.6,3,4.7,3
2013/6/30 3:48,2.7,3,2.7,3,5,3
2013/6/30 3:49,2.7,3,2.7,3,4.7,3
2013/6/30 3:50,2.8,3,2.8,3,4.3,4
2013/6/30 3:51,2.7,3,2.8,3,4.3,2
2013/6/30 3:52,2.8,3,2.8,3,5.4,3
2013/6/30 3:53,2.8,3,2.9,3,3.9,4
2013/6/30 3:54,2.8,3,2.8,3,3,2
2013/6/30 3:55,2.9,3,2.9,3,4.9,2
2013/6/30 3:56,2.9,3,2.9,3,4.7,2
2013/6/30 3:57,3,3,3,3,4.2,3
2013/6/30 3:58,2.9,3,3,3,3.9,3
2013/6/30 3:59,3,3,3,3,4.9,3
2013/6/30 4:00,2.9,3,3,3,3.5,4
2013/6/30 4:01,2.9,3,2.9,3,3.7,3
2013/6/30 4:02,2.7,3,2.8,3,3.2,1
2013/6/30 4:03,2.7,3,2.7,3,3.9,3
2013/6/30 4:04,2.7,2,2.7,3,2.7,2
2013/6/30 4:05,2.6,2,2.7,3,3.5,3
2013/6/30 4:06,2.4,2,2.6,3,2.2,3
2013/6/30 4:07,2.2,2,2.4,3,3.2,2
2013/6/30 4:08,2.1,2,2.2,3,2.9,3
2013/6/30 4:09,1.9,2,2.1,3,2.6,1
2013/6/30 4:10,1.9,2,1.9,3,3.2,3
2013/6/30 4:11,1.9,2,1.9,3,4.2,3
2013/6/30 4:12,1.9,2,1.9,3,3,2
2013/6/30 4:13,1.9,2,1.9,3,4.2,2
2013/6/30 4:14,2,2,2,2,4.1,3
2013/6/30 4:15,2.2,2,2.2,2,4.5,3
2013/6/30 4:16,2.3,2,2.3,2,4.4,3
2013/6/30 4:17,2.4,2,2.4,2,3.7,1
2013/6/30 4:18,2.5,2,2.5,2,4.3,4
2013/6/30 4:19,2.6,2,2.6,2,5.1,2
2013/6/30 4:20,2.8,2,2.8,2,6,2
2013/6/30 4:21,2.7,2,2.8,2,5.2,3
2013/6/30 4:22,2.8,2,2.9,2,4.7,3
2013/6/30 4:23,2.7,2,2.8,2,3.6,3
2013/6/30 4:24,2.6,2,2.7,2,2.4,1
2013/6/30 4:25,2.4,2,2.6,2,3.9,1
2013/6/30 4:26,2.3,2,2.4,2,3.2,2
2013/6/30 4:27,2.4,2,2.4,2,4.9,3
2013/6/30 4:28,2.3,2,2.4,2,3.5,3
2013/6/30 4:29,2.1,2,2.2,2,2.5,1
2013/6/30 4:30,2,2,2.1,2,2.9,1
2013/6/30 4:31,2,2,2,2,3.2,1
2013/6/30 4:32,1.9,2,2,2,3.5,2
2013/6/30 4:33,2,2,2,2,3.6,3
2013/6/30 4:34,2.1,2,2.1,2,3.2,2
2013/6/30 4:35,2.1,2,2.1,2,2.5,2
2013/6/30 4:36,2.1,2,2.1,2,3,4
2013/6/30 4:37,2,2,2.1,2,2.9,4
2013/6/30 4:38,2,2,2,2,2.2,2
2013/6/30 4:39,2,2,2,2,2.2,3
2013/6/30 4:40,1.9,2,2,2,2.5,3
2013/6/30 4:41,1.9,2,1.9,2,2.1,3
2013/6/30 4:42,1.9,3,1.9,2,2.6,3
2013/6/30 4:43,1.8,2,1.9,2,3.2,3
2013/6/30 4:44,1.8,3,1.8,2,2.5,3
2013/6/30 4:45,1.8,3,1.8,2,2.7,3
2013/6/30 4:46,1.8,3,1.9,2,2.9,3
2013/6/30 4:47,1.8,3,1.8,2,2.6,3
2013/6/30 4:48,1.9,3,1.9,2,3.1,3
2013/6/30 4:49,2.1,3,2.1,3,4.1,2
2013/6/30 4:50,2.2,3,2.2,3,3.3,3
2013/6/30 4:51,2.2,3,2.2,3,2.6,2
2013/6/30 4:52,2.3,3,2.3,3,4.4,4
2013/6/30 4:53,2.4,3,2.4,3,5,3
2013/6/30 4:54,2.5,2,2.5,2,4.3,2
2013/6/30 4:55,2.5,2,2.5,2,4.8,3
2013/6/30 4:56,2.7,2,2.7,2,4.5,3
2013/6/30 4:57,2.8,3,2.8,2,4.1,4
2013/6/30 4:58,2.8,3,2.8,2,4.1,2
2013/6/30 4:59,2.8,3,2.9,3,4.3,2
2013/6/30 5:00,2.6,2,2.7,3,1.8,16
2013/6/30 5:01,2.6,2,2.6,3,3.1,3
2013/6/30 5:02,2.5,2,2.6,3,3,3
2013/6/30 5:03,2.3,2,2.5,3,2.2,4
2013/6/30 5:04,2.2,3,2.3,3,2.2,4
2013/6/30 5:05,2.2,3,2.2,3,3.1,3
2013/6/30 5:06,2.1,3,2.2,3,3.2,3
2013/6/30 5:07,2,3,2.1,3,3.5,3
2013/6/30 5:08,1.9,2,2,3,3.2,2
2013/6/30 5:09,1.8,3,1.9,2,3.1,4
2013/6/30 5:10,2,3,2,2,3.3,3
2013/6/30 5:11,2.1,3,2.1,2,3.5,3
2013/6/30 5:12,2,3,2.1,2,2.2,3
2013/6/30 5:13,2,3,2,2,2.4,3
2013/6/30 5:14,2,3,2,3,3,3
2013/6/30 5:15,2,3,2,3,2.6,3
2013/6/30 5:16,1.9,3,2,3,2.2,3
2013/6/30 5:17,1.9,3,1.9,3,3.3,3
2013/6/30 5:18,2,3,2,3,3.5,3
2013/6/30 5:19,1.9,3,2,3,2,2
2013/6/30 5:20,1.9,2,1.9,3,2.5,3
2013/6/30 5:21,1.8,2,1.9,3,3.5,2
2013/6/30 5:22,2.1,2,2.1,2,4.9,3
2013/6/30 5:23,2.2,2,2.2,2,3.7,3
2013/6/30 5:24,2.2,2,2.2,2,3.8,3
2013/6/30 5:25,2.3,2,2.3,2,3,2
2013/6/30 5:26,2.4,2,2.4,2,4.4,3
2013/6/30 5:27,2.3,2,2.3,2,3,4
2013/6/30 5:28,2.2,2,2.3,2,3.1,3
2013/6/30 5:29,2.3,2,2.3,2,3.7,3
2013/6/30 5:30,2.4,2,2.4,2,3.2,3
2013/6/30 5:31,2.3,2,2.4,2,2.1,1
2013/6/30 5:32,2,2,2.2,2,1.9,2
2013/6/30 5:33,2,2,2,2,4.3,2
2013/6/30 5:34,2,2,2,2,5.7,3
2013/6/30 5:35,2.2,2,2.2,2,4.9,2
2013/6/30 5:36,2.3,2,2.3,2,5.4,3
2013/6/30 5:37,2.4,2,2.4,2,5,3
2013/6/30 5:38,2.6,2,2.6,2,4.7,3
2013/6/30 5:39,2.8,2,2.8,2,6.3,3
2013/6/30 5:40,2.9,2,2.9,2,5.7,3
2013/6/30 5:41,3.2,2,3.2,2,5.8,3
2013/6/30 5:42,3.5,3,3.5,3,4.9,3
2013/6/30 5:43,3.6,3,3.6,2,4.3,3
2013/6/30 5:44,3.6,3,3.6,2,4.9,3
2013/6/30 5:45,3.5,3,3.6,2,4.2,3
2013/6/30 5:46,3.5,3,3.5,2,5.1,3
2013/6/30 5:47,3.5,3,3.5,2,4.4,3
2013/6/30 5:48,3.5,3,3.6,2,4.7,3
2013/6/30 5:49,3.3,3,3.5,2,5,2
2013/6/30 5:50,3.3,3,3.4,2,4.8,3
2013/6/30 5:51,3.1,3,3.3,2,3.3,3
2013/6/30 5:52,3,3,3.1,2,4.8,3
2013/6/30 5:53,3.1,3,3.1,3,4.7,3
2013/6/30 5:54,3,3,3.1,3,4.3,2
2013/6/30 5:55,3.1,3,3.1,3,6,3
2013/6/30 5:56,3.1,3,3.2,3,5.1,3
2013/6/30 5:57,3.1,3,3.1,3,5.2,2
2013/6/30 5:58,3.2,3,3.2,3,4.3,2
2013/6/30 5:59,3.3,3,3.3,3,5.4,3
2013/6/30 6:00,3.3,3,3.3,3,5.4,3
2013/6/30 6:01,3.5,3,3.5,3,4.7,3
2013/6/30 6:02,3.4,3,3.5,3,3.2,1
2013/6/30 6:03,3.3,2,3.4,3,5.8,2
2013/6/30 6:04,3.3,2,3.3,3,5.4,2
2013/6/30 6:05,3,2,3.3,3,3.8,2
2013/6/30 6:06,3,2,3.1,3,4.7,3
2013/6/30 6:07,3,2,3,3,4.5,3
2013/6/30 6:08,2.9,2,3,3,3.9,3
2013/6/30 6:09,2.9,2,2.9,3,4.4,3
2013/6/30 6:10,2.8,2,2.9,3,3.7,2
2013/6/30 6:11,2.6,2,2.8,3,3.7,2
2013/6/30 6:12,2.7,2,2.7,3,3.5,2
2013/6/30 6:13,2.6,2,2.7,2,3.6,3
2013/6/30 6:14,2.8,2,2.8,2,5.8,2
2013/6/30 6:15,2.9,2,2.9,2,5,2
2013/6/30 6:16,3,3,3,2,4.4,2
2013/6/30 6:17,3,3,3,2,3.6,3
2013/6/30 6:18,2.9,2,2.9,2,3.6,3
2013/6/30 6:19,2.7,2,2.9,2,3.2,2
2013/6/30 6:20,2.7,2,2.8,2,4.7,3
2013/6/30 6:21,2.7,2,2.7,2,3.1,1
2013/6/30 6:22,2.7,2,2.7,2,3.6,2
2013/6/30 6:23,2.6,2,2.7,2,3,3
2013/6/30 6:24,2.6,2,2.6,2,4.7,3
2013/6/30 6:25,2.5,2,2.6,2,4.1,3
2013/6/30 6:26,2.3,2,2.4,3,3.1,3
2013/6/30 6:27,2.3,2,2.3,3,3.1,3
2013/6/30 6:28,2.3,2,2.3,2,3.2,1
2013/6/30 6:29,2.3,2,2.3,2,3.3,2
2013/6/30 6:30,2.3,2,2.3,2,3.1,2
2013/6/30 6:31,2.3,2,2.3,2,2.6,2
2013/6/30 6:32,2.2,2,2.3,2,2.2,4
2013/6/30 6:33,2.2,2,2.2,2,2.6,3
2013/6/30 6:34,2.1,2,2.2,2,3.9,2
2013/6/30 6:35,2.1,2,2.1,2,4.4,2
2013/6/30 6:36,2.2,2,2.2,2,4.7,3
2013/6/30 6:37,2.3,2,2.3,2,5.5,2
2013/6/30 6:38,2.2,2,2.3,2,2.4,2
2013/6/30 6:39,2.2,2,2.2,2,2.9,2
2013/6/30 6:40,2.2,2,2.2,2,3.5,4
2013/6/30 6:41,2.2,2,2.3,2,2.4,2
2013/6/30 6:42,2.2,2,2.2,2,2,3
2013/6/30 6:43,2.2,2,2.2,2,1.8,2
2013/6/30 6:44,2.1,2,2.2,2,3,16
2013/6/30 6:45,2,2,2.1,2,2.9,1
2013/6/30 6:46,1.8,3,2,2,2.4,3
2013/6/30 6:47,1.7,3,1.8,2,2.2,4
2013/6/30 6:48,1.7,3,1.7,2,2,3
2013/6/30 6:49,1.6,3,1.7,2,1.8,16
2013/6/30 6:50,1.4,3,1.5,2,1.6,2
2013/6/30 6:51,1.5,3,1.5,2,2.7,3
2013/6/30 6:52,1.4,3,1.5,2,2.6,3
2013/6/30 6:53,1.6,3,1.6,2,3.7,3
2013/6/30 6:54,1.6,3,1.6,2,3.5,4
2013/6/30 6:55,1.6,3,1.6,2,2.7,3
2013/6/30 6:56,1.7,3,1.7,3,2.7,3
2013/6/30 6:57,1.7,3,1.7,3,2.9,3
2013/6/30 6:58,1.7,3,1.7,3,3,3
2013/6/30 6:59,1.9,3,1.9,3,3.7,4
2013/6/30 7:00,2,3,2,3,3.6,3
2013/6/30 7:01,2.1,3,2.1,3,4.5,5
2013/6/30 7:02,2.2,3,2.2,3,3.5,3
2013/6/30 7:03,2.2,3,2.2,3,3.1,2
2013/6/30 7:04,2.1,3,2.2,3,1.8,4
2013/6/30 7:05,2.1,3,2.1,3,2.6,3
2013/6/30 7:06,2,3,2.1,3,2.1,4
2013/6/30 7:07,1.9,3,2,3,2.4,2
2013/6/30 7:08,1.9,3,2,3,2.6,2
2013/6/30 7:09,1.9,3,1.9,3,2.5,4
2013/6/30 7:10,1.9,3,1.9,3,3.2,3
2013/6/30 7:11,1.7,3,1.8,3,3,4
2013/6/30 7:12,1.7,3,1.7,3,2,3
2013/6/30 7:13,1.6,3,1.6,3,2.5,4
2013/6/30 7:14,1.7,3,1.7,3,2.4,5
2013/6/30 7:15,1.7,3,1.7,3,2.6,4
2013/6/30 7:16,1.7,4,1.7,3,2.5,4
2013/6/30 7:17,1.9,4,1.9,3,4.5,3
2013/6/30 7:18,1.8,3,1.9,3,2.9,2
2013/6/30 7:19,2,4,2,4,4.5,4
2013/6/30 7:20,2.1,4,2.1,4,4.8,3
2013/6/30 7:21,2.2,3,2.2,4,3.9,3
2013/6/30 7:22,2.4,3,2.4,3,4.1,4
2013/6/30 7:23,2.5,3,2.5,3,3.8,4
2013/6/30 7:24,2.4,3,2.4,3,2.4,4
2013/6/30 7:25,2.3,3,2.4,3,2,3
2013/6/30 7:26,2.4,3,2.4,3,2.7,3
2013/6/30 7:27,2.3,3,2.4,3,3.1,3
2013/6/30 7:28,2.4,3,2.4,3,3.5,3
2013/6/30 7:29,2.4,3,2.5,3,4.3,3
2013/6/30 7:30,2.2,3,2.4,3,3.2,2
2013/6/30 7:31,2.1,4,2.2,3,2.4,7
2013/6/30 7:32,2,3,2.1,3,2.5,3
2013/6/30 7:33,1.8,3,1.9,3,2.1,3
2013/6/30 7:34,1.8,3,1.8,3,2,2
2013/6/30 7:35,1.8,3,1.8,3,2.4,3
2013/6/30 7:36,1.8,3,1.8,3,3.7,3
2013/6/30 7:37,1.9,3,1.9,3,4.2,3
2013/6/30 7:38,2,3,2,3,4.1,5
2013/6/30 7:39,1.8,3,2,3,2.6,6
2013/6/30 7:40,1.7,3,1.8,3,1.6,6
2013/6/30 7:41,1.8,3,1.8,4,2.7,5
2013/6/30 7:42,1.8,4,1.8,3,2.6,5
2013/6/30 7:43,1.8,4,1.8,3,2.1,3
2013/6/30 7:44,1.8,4,1.8,3,2,4
2013/6/30 7:45,1.9,4,1.9,3,2.6,3
2013/6/30 7:46,1.8,4,1.9,3,2.5,6
2013/6/30 7:47,1.7,5,1.8,3,3.5,7
2013/6/30 7:48,1.6,5,1.7,3,3.5,5
2013/6/30 7:49,1.7,5,1.7,4,2.7,5
2013/6/30 7:50,1.7,5,1.7,4,2.5,4
2013/6/30 7:51,1.7,5,1.7,4,2.5,5
2013/6/30 7:52,1.7,5,1.7,4,2.4,6
2013/6/30 7:53,1.8,5,1.8,4,4.3,4
2013/6/30 7:54,1.9,5,1.9,4,3.3,4
2013/6/30 7:55,2,5,2,5,3.3,4
2013/6/30 7:56,2.1,5,2.1,5,3.7,5
2013/6/30 7:57,2.2,5,2.2,5,3.1,6
2013/6/30 7:58,2.2,5,2.2,5,3.2,5
2013/6/30 7:59,2.2,5,2.2,5,4.7,4
2013/6/30 8:00,2.3,4,2.3,4,2.9,4
2013/6/30 8:01,2.3,4,2.3,4,2.5,4
2013/6/30 8:02,2.3,4,2.3,4,2.1,3
2013/6/30 8:03,2.1,4,2.3,4,2.7,5
2013/6/30 8:04,2.1,4,2.1,4,3.6,3
2013/6/30 8:05,2.1,4,2.2,4,4.5,4
2013/6/30 8:06,2.1,4,2.2,4,4.7,4
2013/6/30 8:07,2.2,4,2.2,4,4.7,3
2013/6/30 8:08,2.1,4,2.2,4,2.9,2
2013/6/30 8:09,2.1,4,2.1,4,3.1,7
2013/6/30 8:10,2.1,5,2.1,4,3.8,6
2013/6/30 8:11,2.2,5,2.2,4,3.3,6
2013/6/30 8:12,2.2,5,2.2,4,2.5,8
2013/6/30 8:13,2.3,5,2.3,5,3.1,7
2013/6/30 8:14,2.1,6,2.2,5,1.8,7
2013/6/30 8:15,2,6,2.1,5,1.5,8
2013/6/30 8:16,1.8,6,2,5,2,6
2013/6/30 8:17,1.6,6,1.8,5,1.9,6
2013/6/30 8:18,1.6,6,1.6,5,3,5
2013/6/30 8:19,1.6,6,1.7,5,2.2,4
2013/6/30 8:20,1.6,6,1.6,5,3.2,5
2013/6/30 8:21,1.4,6,1.5,5,2.5,6
2013/6/30 8:22,1.4,6,1.4,5,1.8,4
2013/6/30 8:23,1.3,6,1.4,5,1,5
2013/6/30 8:24,1.3,6,1.3,6,3.2,5
2013/6/30 8:25,1.4,5,1.4,6,2.7,5
2013/6/30 8:26,1.4,5,1.4,6,1.8,3
2013/6/30 8:27,1.4,5,1.4,6,2.5,5
2013/6/30 8:28,1.4,5,1.4,6,2.5,5
2013/6/30 8:29,1.3,5,1.4,6,1.6,7
2013/6/30 8:30,1.2,5,1.3,6,2.4,6
2013/6/30 8:31,1.3,5,1.3,6,3.2,6
2013/6/30 8:32,1.4,5,1.4,6,3,5
2013/6/30 8:33,1.6,5,1.6,5,3,4
2013/6/30 8:34,1.7,5,1.7,5,3.6,5
2013/6/30 8:35,1.7,5,1.7,5,2.7,5
2013/6/30 8:36,1.7,5,1.7,5,2,3
2013/6/30 8:37,1.7,5,1.7,5,2,3
2013/6/30 8:38,1.7,5,1.7,5,2.5,5
2013/6/30 8:39,1.8,5,1.8,5,3.1,4
2013/6/30 8:40,1.9,5,1.9,5,3.9,5
2013/6/30 8:41,2.1,5,2.1,5,5.1,5
2013/6/30 8:42,2.2,5,2.2,5,4.7,5
2013/6/30 8:43,2.3,5,2.3,5,3.6,5
2013/6/30 8:44,2.2,5,2.2,5,3.9,6
2013/6/30 8:45,2.2,5,2.2,5,3.9,6
2013/6/30 8:46,2.2,5,2.3,5,2.6,7
2013/6/30 8:47,2.3,5,2.3,5,1.6,6
2013/6/30 8:48,2.2,5,2.3,5,1.8,5
2013/6/30 8:49,2.1,5,2.2,5,1.6,5
2013/6/30 8:50,1.9,5,2.1,5,2.1,5
2013/6/30 8:51,1.7,5,1.9,5,1.5,4
2013/6/30 8:52,1.5,5,1.7,5,2,5
2013/6/30 8:53,1.3,5,1.5,5,1.5,6
2013/6/30 8:54,1.3,5,1.4,5,3.5,6
2013/6/30 8:55,1.3,5,1.3,5,2.6,6
2013/6/30 8:56,1.4,5,1.4,5,3.2,4
2013/6/30 8:57,1.5,5,1.5,5,3.2,7
2013/6/30 8:58,1.6,5,1.6,5,3.5,5
2013/6/30 8:59,1.6,5,1.6,5,2.4,5
2013/6/30 9:00,1.7,5,1.7,5,2,6
2013/6/30 9:01,1.8,5,1.8,5,3,5
2013/6/30 9:02,1.8,6,1.9,5,3.1,6
2013/6/30 9:03,2,6,2,6,3.1,6
2013/6/30 9:04,2,6,2,6,2.9,6
2013/6/30 9:05,2,6,2,6,3.6,6
2013/6/30 9:06,2.1,6,2.1,6,4.2,5
2013/6/30 9:07,2.1,5,2.1,6,3.2,7
2013/6/30 9:08,2.1,6,2.1,6,3.7,6
2013/6/30 9:09,2.1,6,2.1,6,2.9,6
2013/6/30 9:10,2,6,2.1,6,1.8,5
2013/6/30 9:11,1.9,6,2,6,1.8,5
2013/6/30 9:12,1.9,6,1.9,6,3.2,6
2013/6/30 9:13,1.8,6,1.9,6,2.7,6
2013/6/30 9:14,1.9,6,1.9,6,3.5,5
2013/6/30 9:15,1.8,6,1.9,6,2.9,6
2013/6/30 9:16,1.6,6,1.8,6,2.1,4
2013/6/30 9:17,1.6,5,1.7,5,3.1,5
2013/6/30 9:18,1.6,5,1.6,6,4.1,6
2013/6/30 9:19,1.7,5,1.7,6,3.2,5
2013/6/30 9:20,1.9,5,1.9,6,4.7,5
2013/6/30 9:21,2,5,2,5,4.5,5
2013/6/30 9:22,2.1,5,2.1,5,3,4
2013/6/30 9:23,2.2,5,2.2,5,3.3,5
2013/6/30 9:24,2.3,5,2.3,5,4.9,6
2013/6/30 9:25,2.5,5,2.5,5,3.9,5
2013/6/30 9:26,2.6,5,2.6,5,4.1,4
2013/6/30 9:27,2.6,5,2.6,5,3.7,4
2013/6/30 9:28,2.6,5,2.7,5,3.6,4
2013/6/30 9:29,2.6,4,2.6,5,3.9,5
2013/6/30 9:30,2.6,5,2.7,5,3.3,4
2013/6/30 9:31,2.6,5,2.6,5,3.3,6
2013/6/30 9:32,2.6,5,2.6,5,2.9,6
2013/6/30 9:33,2.4,5,2.6,5,2.5,4
2013/6/30 9:34,2.4,5,2.4,5,3.9,6
2013/6/30 9:35,2.4,5,2.4,5,3.9,4
2013/6/30 9:36,2.5,5,2.5,5,4.2,4
2013/6/30 9:37,2.5,4,2.5,5,3.7,2
2013/6/30 9:38,2.4,4,2.5,4,3.5,4
2013/6/30 9:39,2.4,4,2.5,4,2.9,2
2013/6/30 9:40,2.5,4,2.5,5,5.5,4
2013/6/30 9:41,2.6,4,2.6,5,5.2,5
2013/6/30 9:42,2.7,4,2.7,4,4.3,3
2013/6/30 9:43,2.9,4,2.9,4,4.4,4
2013/6/30 9:44,2.8,4,2.9,4,3.8,5
2013/6/30 9:45,2.7,4,2.8,4,3.9,5
2013/6/30 9:46,2.6,4,2.7,4,3.7,6
2013/6/30 9:47,2.5,5,2.6,4,3.1,4
2013/6/30 9:48,2.5,5,2.5,4,3,6
2013/6/30 9:49,2.6,5,2.6,4,3.7,5
2013/6/30 9:50,2.6,5,2.6,4,4.1,6
2013/6/30 9:51,2.4,5,2.6,4,3.7,6
2013/6/30 9:52,2.3,5,2.4,4,3.6,3
2013/6/30 9:53,2.2,6,2.3,4,3.7,6
2013/6/30 9:54,2.2,6,2.2,4,3.8,7
2013/6/30 9:55,2.2,6,2.3,4,4.1,6
2013/6/30 9:56,2.4,6,2.4,4,5.4,7
2013/6/30 9:57,2.7,6,2.7,6,5.6,6
2013/6/30 9:58,2.8,6,2.8,6,4.7,6
2013/6/30 9:59,2.8,6,2.9,6,4.4,7
2013/6/30 10:00,2.8,6,2.8,6,3.9,6
2013/6/30 10:01,2.8,6,2.8,6,4.1,7
2013/6/30 10:02,2.8,7,2.8,6,2.6,6
2013/6/30 10:03,2.8,6,2.8,6,3.6,5
2013/6/30 10:04,2.7,6,2.8,6,2.6,3
2013/6/30 10:05,2.7,6,2.7,6,3.9,7
2013/6/30 10:06,2.5,6,2.6,6,3.5,6
2013/6/30 10:07,2.3,6,2.5,6,3.8,6
2013/6/30 10:08,2.2,6,2.3,6,3.6,5
2013/6/30 10:09,2.2,6,2.2,6,3.9,6
2013/6/30 10:10,2.1,6,2.2,6,3.2,5
2013/6/30 10:11,2.1,6,2.1,6,2.2,6
2013/6/30 10:12,2.1,5,2.1,7,2.7,5
2013/6/30 10:13,2,5,2.1,6,2.7,5
2013/6/30 10:14,2.1,5,2.1,6,3.2,6
2013/6/30 10:15,2.1,5,2.1,6,3.9,5
2013/6/30 10:16,2.2,5,2.2,6,4.4,6
2013/6/30 10:17,2.3,5,2.3,6,4.3,6
2013/6/30 10:18,2.2,5,2.3,5,3.6,5
2013/6/30 10:19,2.1,5,2.2,5,2.9,6
2013/6/30 10:20,2,5,2.1,5,2.5,7
2013/6/30 10:21,2,6,2,5,2.6,8
2013/6/30 10:22,2.1,5,2.1,5,5.2,5
2013/6/30 10:23,2.1,6,2.2,5,4.7,4
2013/6/30 10:24,2,6,2.1,5,2.5,4
2013/6/30 10:25,2.1,6,2.1,5,4.3,7
2013/6/30 10:26,2,6,2.1,5,4.2,8
2013/6/30 10:27,2.1,6,2.1,5,4.7,7
2013/6/30 10:28,2.1,6,2.1,5,3.1,6
2013/6/30 10:29,2.2,6,2.2,6,3.5,6
2013/6/30 10:30,2.3,6,2.3,6,4.5,7
2013/6/30 10:31,2.5,6,2.5,6,4.5,5
2013/6/30 10:32,2.5,6,2.5,6,4.2,5
2013/6/30 10:33,2.6,6,2.6,6,3.8,5
2013/6/30 10:34,2.7,5,2.7,6,3.3,4
2013/6/30 10:35,2.7,5,2.8,5,3.3,5
2013/6/30 10:36,2.5,5,2.6,5,3,4
2013/6/30 10:37,2.4,5,2.5,5,2.7,3
2013/6/30 10:38,2.4,4,2.4,5,3.2,6
2013/6/30 10:39,2.3,4,2.4,5,3.2,6
2013/6/30 10:40,2.3,4,2.3,5,3.2,6
2013/6/30 10:41,2.2,5,2.3,5,3.1,7
2013/6/30 10:42,2,5,2.2,5,2.5,6
2013/6/30 10:43,1.9,5,2,5,4.3,6
2013/6/30 10:44,1.9,5,2,5,3.9,5
2013/6/30 10:45,1.9,6,1.9,5,2.7,9
2013/6/30 10:46,2,6,2,5,3.6,5
2013/6/30 10:47,2,6,2,5,3.2,6
2013/6/30 10:48,1.9,6,2,4,3,8
2013/6/30 10:49,1.9,6,2,4,2.4,7
2013/6/30 10:50,1.9,6,1.9,4,5.6,8
2013/6/30 10:51,1.9,7,1.9,5,3.1,7
2013/6/30 10:52,2,7,2,5,3.1,8
2013/6/30 10:53,2,7,2,5,3.2,7
2013/6/30 10:54,2,7,2,6,3.1,5
2013/6/30 10:55,2.1,7,2.1,7,3.3,4
2013/6/30 10:56,2.1,7,2.1,7,3.6,4
2013/6/30 10:57,2.1,7,2.1,7,3.5,3
2013/6/30 10:58,2.3,6,2.3,6,4.5,5
2013/6/30 10:59,2.4,6,2.4,6,3.5,4
2013/6/30 11:00,2.5,6,2.5,6,3.8,5
2013/6/30 11:01,2.5,5,2.6,5,4.3,6
2013/6/30 11:02,2.6,5,2.6,5,4.7,4
2013/6/30 11:03,2.5,5,2.6,5,3,5
2013/6/30 11:04,2.5,5,2.5,5,2.4,3
2013/6/30 11:05,2.5,5,2.5,5,3.9,5
2013/6/30 11:06,2.4,5,2.5,5,3.1,5
2013/6/30 11:07,2.5,5,2.5,5,5,7
2013/6/30 11:08,2.5,5,2.5,5,6.5,6
2013/6/30 11:09,2.5,5,2.5,5,5,5
2013/6/30 11:10,2.6,5,2.6,5,5.4,5
2013/6/30 11:11,2.5,5,2.6,5,4.8,4
2013/6/30 11:12,2.6,5,2.6,5,5.4,5
2013/6/30 11:13,2.9,5,2.9,5,5.8,6
2013/6/30 11:14,3,6,3,6,4.4,7
2013/6/30 11:15,3,6,3,6,4.1,6
2013/6/30 11:16,3.1,6,3.1,6,4.8,5
2013/6/30 11:17,3.2,6,3.2,6,4.9,6
2013/6/30 11:18,3,6,3.1,6,3.7,7
2013/6/30 11:19,3,6,3.1,6,4.1,6
2013/6/30 11:20,2.9,6,3,6,3.7,5
2013/6/30 11:21,2.9,6,2.9,6,3.6,7
2013/6/30 11:22,2.7,6,2.9,6,3,6
2013/6/30 11:23,2.6,6,2.7,6,5.4,5
2013/6/30 11:24,2.6,6,2.6,6,5,5
2013/6/30 11:25,2.7,6,2.7,6,5.1,5
2013/6/30 11:26,2.6,6,2.7,6,4.5,5
2013/6/30 11:27,2.7,6,2.7,6,6.2,4
2013/6/30 11:28,2.9,6,2.9,6,5.2,5
2013/6/30 11:29,3,6,3,6,5.4,5
2013/6/30 11:30,3,6,3,6,3.7,5
2013/6/30 11:31,3.1,5,3.1,6,3.6,5
2013/6/30 11:32,3.2,5,3.2,5,3.2,7
2013/6/30 11:33,3.1,5,3.2,5,3.5,5
2013/6/30 11:34,2.9,5,3.1,5,3,6
2013/6/30 11:35,2.7,5,2.9,5,2.7,7
2013/6/30 11:36,2.6,6,2.6,5,3.3,8
2013/6/30 11:37,2.5,6,2.6,5,5.6,8
2013/6/30 11:38,2.5,6,2.6,5,5.6,8
2013/6/30 11:39,2.4,6,2.5,5,3.7,8
2013/6/30 11:40,2.2,7,2.3,5,2.7,6
2013/6/30 11:41,2.1,7,2.2,5,2.4,7
2013/6/30 11:42,2.2,7,2.2,5,4.4,7
2013/6/30 11:43,2.2,7,2.2,5,5.4,6
2013/6/30 11:44,2.4,7,2.4,5,6,7
2013/6/30 11:45,2.5,7,2.5,5,2.7,7
2013/6/30 11:46,2.4,7,2.5,6,2.5,8
2013/6/30 11:47,2.3,7,2.4,6,2.5,5
2013/6/30 11:48,2,7,2.2,6,2.2,6
2013/6/30 11:49,1.9,7,2,7,1.6,9